Skip Page Navigation
NASA JPL Caltech
NASA Logo - Jet Propulsion Laboratory + View the NASA Portal
+ Near-Earth Object (NEO) Program
Search JPL
JPL Home Earth Solar System Stars & Galaxies Technology
JPL Solar System Dynamics
BODIES ORBITS EPHEMERIDES TOOLS PHYSICAL DATA DISCOVERY FAQ SITE MAP
JPL Small-Body Database Browser
Search: [ help ]  
11570 (1993 LE)
Classification: Main-belt Asteroid          SPK-ID: 2011570
Ephemeris | Orbit Diagram | Orbital Elements | Physical Parameters | Discovery Circumstances | Close-Approach Data ]

[ show orbit diagram ]
Orbital Elements at Epoch 2457000.5 (2014-Dec-09.0) TDB
Reference: JPL 4 (heliocentric ecliptic J2000)
 Element Value Uncertainty (1-sigma)   Units 
e .09018455839003556 5.7534e-08  
a 3.019741464729085 3.8985e-08 AU
q 2.747407414280413 1.8157e-07 AU
i 11.94390689466161 6.362e-06 deg
node 131.6049214207539 2.9346e-05 deg
peri 146.507422780843 5.1389e-05 deg
M 24.89279918278009 4.7771e-05 deg
tp 2456867.966915603547
(2014-Jul-29.46691560)
0.00025335 JED
period 1916.69526726943
5.25
3.7117e-05
1.016e-07
d
yr
n .1878232842474039 3.6373e-09 deg/d
Q 3.292075515177757 4.2501e-08 AU
  Orbit Determination Parameters
   # obs. used (total)      1076  
   data-arc span      7312 days (20.02 yr)  
   first obs. used      1993-06-14  
   last obs. used      2013-06-21  
   planetary ephem.      DE431  
   SB-pert. ephem.      SB431-BIG16  
   condition code      0  
   fit RMS      .53661  
   data source      ORB  
   producer      Otto Matic  
   solution date      2014-Jun-09 20:08:00  

Additional Information
 Earth MOID = 1.74085 AU 
 T_jup = 3.208 
[ show covariance matrix ]

Ephemeris | Orbit Diagram | Orbital Elements | Physical Parameters | Discovery Circumstances | Close-Approach Data ]

Physical Parameter Table
Parameter Symbol Value Units Sigma Reference Notes
absolute magnitude H 12.6 mag n/a MPO263453  

11570 (1993 LE)          Discovered 1993-Jun-14 by Holt, H. E. at Palomar (675)
Reference: 19990928/Numbers.arcLast Updated: 2004-04-19

[ show close-approach data ]
Alternate Designations
 1993 LE = 1997 CD1 
Ephemeris | Orbit Diagram | Orbital Elements | Physical Parameters | Discovery Circumstances | Close-Approach Data ]
ABOUT SSD CREDITS/AWARDS PRIVACY/COPYRIGHT GLOSSARY LINKS
FirstGov 2014-Sep-02 14:04 UT
(server date/time)  
NASA Home Page
Site Manager:   Donald K. Yeomans
Webmaster  Alan B. Chamberlin